Kaktovik, AK

5:54 PM AKST on February 21, 2017 (GMT -0900)
Barter Island LRRS

Weather History for PABA - September, 2013

Change the Weather History Date:

Friday, September 6, 2013

  Actual Average Record
Temperature  
Mean Temperature 38 °F -  
Max Temperature 37 °F 38 °F 53 °F (2006)
Min Temperature 36 °F 32 °F 30 °F (1996)
Degree Days  
Heating Degree Days 28    
Moisture  
Dew Point 36 °F    
Average Humidity 96    
Maximum Humidity 100    
Minimum Humidity 93    
Precipitation  
Precipitation 0.00 in - - ()
Sea Level Pressure  
Sea Level Pressure 29.91 in    
Wind  
Wind Speed 10 mph (East)    
Max Wind Speed 26 mph    
Max Gust Speed -    
Visibility 6 miles    
Events Fog , Rain    
Averages and records for this station are not official NWS values.
T = Trace of Precipitation, MM = Missing Value Source: NWS Daily Summary

Daily Weather History Graph

Daily Weather History Graph

Search for Another Location

Airport or City:

Trip Planner

Search our weather history database for the weather conditions in past years. The results will help you decide how hot, cold, wet, or windy it might be!

Date:

Astronomy

Sep. 06, 2013 Rise Set
Actual Time 6:11 AM AKDT 8:50 PM AKDT
Civil Twilight 5:01 AM AKDT 9:59 PM AKDT
Nautical Twilight 3:04 AM AKDT 11:51 PM AKDT
Astronomical Twilight Sun does not rise Sun does not rise
Moon 8:49 AM AKDT (9/6) 7:49 PM AKDT (9/6)
Length of Visible Light 16h 58m
Length of Day
14h 38m
New Moon, 2% of the Moon is Illuminated
Sep 6
New Moon
Sep 12
First Quarter
Sep 19
Full
Sep 26
Last Quarter
Oct 4
New

Hourly Weather History & Observations

Time (AKDT) Temp. Windchill Dew Point Humidity Pressure Visibility Wind Dir Wind Speed Gust Speed Precip Events Conditions
12:01 AM 36.0 °F 29.0 °F 35.1 °F 97% 29.88 in 10.0 mi SE 9.2 mph - N/A   Clear
1:01 AM 36.0 °F 30.3 °F 34.0 °F 93% 29.90 in 10.0 mi SSE 6.9 mph - N/A   Clear
2:01 AM 37.0 °F 34.5 °F 35.1 °F 93% 29.90 in 10.0 mi Variable 3.5 mph - N/A   Overcast
3:01 AM 36.0 °F 31.1 °F 35.1 °F 97% 29.91 in 10.0 mi North 5.8 mph - N/A   Scattered Clouds
4:01 AM 36.0 °F 33.3 °F 35.1 °F 97% 29.91 in 10.0 mi SSE 3.5 mph - N/A   Overcast
5:01 AM 37.0 °F - 36.0 °F 96% 29.93 in 10.0 mi Calm Calm - N/A   Overcast
6:01 AM 37.9 °F - 36.0 °F 93% 29.93 in 10.0 mi Calm Calm - N/A   Overcast
7:01 AM 37.0 °F - 36.0 °F 96% 29.94 in 10.0 mi Calm Calm - N/A   Scattered Clouds
8:01 AM 37.9 °F 35.5 °F 36.0 °F 93% 29.94 in 10.0 mi East 3.5 mph - N/A   Mostly Cloudy
9:01 AM 37.9 °F - 36.0 °F 93% 29.95 in 10.0 mi Calm Calm - N/A   Overcast
10:01 AM 37.9 °F 34.4 °F 36.0 °F 93% 29.96 in 10.0 mi East 4.6 mph - N/A   Overcast
11:01 AM 39.0 °F 33.4 °F 37.0 °F 93% 29.96 in 10.0 mi ENE 8.1 mph - N/A   Overcast
12:01 PM 39.0 °F 32.3 °F 37.0 °F 93% 29.95 in 10.0 mi East 10.4 mph - N/A   Clear
1:01 PM 39.0 °F 31.8 °F 37.0 °F 93% 29.95 in 10.0 mi East 11.5 mph - N/A   Clear
2:01 PM 39.0 °F 31.0 °F 37.0 °F 93% 29.94 in 10.0 mi East 13.8 mph - N/A   Clear
3:01 PM 39.0 °F 31.4 °F 37.0 °F 93% 29.94 in 10.0 mi East 12.7 mph - N/A   Clear
4:01 PM 39.0 °F 30.3 °F 37.0 °F 93% 29.93 in 10.0 mi East 16.1 mph - N/A   Clear
5:01 PM 39.2 °F 29.8 °F 37.4 °F 93% 29.91 in 3.0 mi East 18.4 mph - N/A   Scattered Clouds
5:08 PM 37.4 °F 27.2 °F 37.4 °F 100% 29.91 in 0.5 mi East 19.6 mph - N/A Fog Fog
5:15 PM 37.4 °F 27.5 °F 35.6 °F 93% 29.91 in 0.2 mi East 18.4 mph - 0.00 in Fog , Rain Light Rain
6:01 PM 37.9 °F 28.5 °F 37.0 °F 97% 29.90 in 0.2 mi East 17.3 mph - 0.00 in Fog , Rain Light Rain
6:30 PM 37.4 °F 27.2 °F 37.4 °F 100% 29.90 in 0.5 mi East 19.6 mph - 0.00 in Fog , Rain Light Rain
7:01 PM 37.4 °F 27.2 °F 37.4 °F 100% 29.89 in 0.2 mi East 19.6 mph - 0.00 in Fog , Rain Light Rain
8:01 PM 37.9 °F 27.3 °F 37.0 °F 97% 29.88 in 0.2 mi East 21.9 mph - 0.00 in Fog , Rain Light Rain
9:01 PM 37.0 °F 27.0 °F 36.0 °F 96% 29.88 in 0.2 mi East 18.4 mph - 0.00 in Fog Fog
9:50 PM 37.4 °F 27.5 °F 35.6 °F 93% 29.87 in 0.5 mi East 18.4 mph - 0.00 in Fog , Rain Light Rain
10:01 PM 37.0 °F 27.0 °F 36.0 °F 96% 29.87 in 0.5 mi East 18.4 mph - 0.00 in Fog Fog
10:50 PM 37.4 °F 27.2 °F 37.4 °F 100% 29.86 in 0.8 mi East 19.6 mph - 0.00 in Rain Light Rain
11:16 PM 37.4 °F 26.4 °F 37.4 °F 100% 29.85 in 0.5 mi East 23.0 mph - N/A Fog , Rain Light Rain
11:37 PM 37.4 °F 25.6 °F 37.4 °F 100% 29.84 in 0.5 mi East 26.5 mph - N/A Fog , Rain Light Rain
11:46 PM 37.4 °F 26.4 °F 37.4 °F 100% 29.84 in 0.8 mi East 23.0 mph - N/A Rain Light Rain